カマラーサ-ドゥサノヴィッツ彗星

C/2023 V4 ( Camarasa-Duszanowicz )

English version
Home page
Updated on September 16, 2024

---------------------------------------------------------------------

・ プロフィール

発見日 2023年11月5日
発見光度 18.7等
発見者 Jordi Camarasa (Sabadell, Barcelona, Spain), Grzegorz Duszanowicz (Akersberga, Sweden)

・ 写真集

・ 軌道要素

Epoch 2024 Oct. 17.0 TT = JDT 2460600.5
T 2024 May 30.36765 TT                                  Rudenko
q   1.1217377            (2000.0)            P               Q
z  -0.0008940      Peri.   50.85800     -0.02258954     -0.53610415
 +/-0.0000009      Node    66.32587     +0.35720255     -0.79267801
e   1.0010028      Incl.   67.13015     +0.93375374     +0.29026525
>From 1033 observations 2023 Nov. 5-2024 Aug. 30, mean residual 0".6.

・ 星図

・ 光度変化

        m1 = 8.5 + 5 logΔ + 15.5 log r(t - 10)

---------------------------------------------------------------------

軌道要素はM.P.E.C. 2024-R10に掲載されたものです。
星図はステラナビゲータ Ver.11 (アストロアーツ) で作成したものです。
光度グラフはComet for Windowsで作成したものです。

---------------------------------------------------------------------

Copyright(C) Seiichi Yoshida (comet@aerith.net). All rights reserved.